Weather WX

World > North America > United States > Michigan

Union Lake, Michigan Regional Weather

Lat: 42.61N, Lon: 83.45W
Wx Zone: MIZ069
Warning FLW WEATHER ALERT - (More Info. Click Here) Warning
Feedback

Union Lake, MI Regional Weather

Expires:201907160100;;703120
ASUS43 KDTX 160001
RWRMI 
MICHIGAN HOURLY REGIONAL WEATHER ROUNDUP
NATIONAL WEATHER SERVICE DETROIT/PONTIAC MI
800 PM EDT MON JUL 15 2019

NOTE: "FAIR" INDICATES FEW OR NO CLOUDS BELOW 12,000 FEET WITH NO
SIGNIFICANT WEATHER AND/OR OBSTRUCTION TO VISIBILITY.


MIZ047>049-052>055-059>063-066>070-074>076-081>083-160100-
SOUTHEAST LOWER MICHIGAN
  
CITY           SKY/WX    TMP DP  RH WIND       PRES   REMARKS
ADRIAN         FAIR      86  69  56 W6        30.01R HX  90           
6HR MIN TEMP:  81; 6HR MAX TEMP:  89; 6HR PCP: TRACE;                

ANN ARBOR      FAIR      83  72  69 SW7       29.99R                  
BAD AXE        FAIR      75  69  84 S8        29.96F                  
6HR MIN TEMP:  69; 6HR MAX TEMP:  85;                                

CARO           FAIR      75  71  85 S6        29.96F                  
DETROIT CITY   CLOUDY    84  65  52 S8        30.00R                  
6HR MIN TEMP:  84; 6HR MAX TEMP:  90;                                

DETROIT        LGT RAIN  83  69  62 VRB3      29.99S                  
6HR MIN TEMP:  83; 6HR MAX TEMP:  89; 6HR PCP: TRACE;                

FLINT          PTSUNNY   79  72  79 S7        29.98S                  
6HR MIN TEMP:  73; 6HR MAX TEMP:  89; 6HR PCP:  0.41;                

GROSSE ILE     FAIR      80  73  79 S8        29.98S                  
6HR MIN TEMP:  79; 6HR MAX TEMP:  84;                                

HILLSDALE      FAIR      85  65  51 SW9       30.03R                  
6HR MIN TEMP:  85; 6HR MAX TEMP:  90;                                


CITY           SKY/WX    TMP DP  RH WIND       PRES   REMARKS
JACKSON        FAIR      86  69  56 SW7       30.00S HX  90           
6HR MIN TEMP:  86; 6HR MAX TEMP:  91;                                

LAMBERTVILLE   FAIR     N/A N/A N/A SW3       29.99S                  
LANSING        FAIR      88  61  40 W8        30.00R                  
6HR MIN TEMP:  87; 6HR MAX TEMP:  92;                                

LAPEER         PTSUNNY   76  71  84 S8        30.00S                  
6HR MIN TEMP:  73; 6HR MAX TEMP:  90; 6HR PCP:  0.06;                

MASON          FAIR      87  65  47 SW3       30.00R                  
6HR MIN TEMP:  77; 6HR MAX TEMP:  89;                                

MONROE         FAIR      84  75  75 S7        29.99S HX  91           
6HR MIN TEMP:  80; 6HR MAX TEMP:  88;                                

MT. CLEMENS    PTSUNNY   75  75 100 CALM      29.99S                  
PONTIAC        PTSUNNY   74  70  87 SE8       30.00F                  
6HR MIN TEMP:  73; 6HR MAX TEMP:  91; 6HR PCP:  0.33;                

PORT HOPE        N/A     77  69  76 VRB5      29.94F                  
6HR MIN TEMP:  70; 6HR MAX TEMP:  77; 6HR PCP:  0.17;                

PORT HURON     FAIR      77  68  73 CALM      29.99S                  
TRI CITIES     FAIR      81  74  79 S7        29.96S                  
6HR MIN TEMP:  74; 6HR MAX TEMP:  87; 6HR PCP:  0.36;                

MIDLAND        FAIR      82  71  70 S6        29.94S                  
6HR MIN TEMP:  74; 6HR MAX TEMP:  86; 6HR PCP:  0.08;                

TROY           RAIN      74  69  84 CALM      30.04R                  
$$

SKY/WX - Weather  TMP - Temperature  DP - Dew Point  RH - Relative Humidity
WIND - Wind Direction/Speed PRES - Barometric Pressure VSB - Visibility
WCI - Wind Chill Index E13G22 Wind - East Wind 13 mph/Gusts of 22 mph